Location: Holyhead Bay
(53.3667°N, 4.6667°W)
Time: 18:58:40
(UTC+00:00)

Cosmos 1933 - Pass Details

Date: 24 November 2020
Orbit: 546 x 563 km, 82.5° (Epoch: 16 January)

Event Time Altitude Azimuth Distance (km) Brightness Sun altitude
Rises 18:22:20 0° 180° (S) 2,719 7.0 -19.0°
Reaches altitude 10° 18:24:30 10° 177° (S) 1,833 6.0 -19.3°
Maximum altitude 18:28:29 62° 97° (E) 634 3.3 -19.9°
Enters shadow 18:29:09 52° 52° (NE) 698 3.4 -20.0°
